User: anonymous   Login
Location: Unspecified
(0.0000°N, 0.0000°E)
Time: 14:04:58
(UTC+02:00)
Language:

ATLAS 3B CENTAUR R/B - Orbit

View from above orbital plane
View from above orbital plane
View from above satellite
View from above satellite

Ground track
Ground track

The orbit data is extracted from the following two-line orbital elements,

1 28118U 03057B   16270.77886560  .00067191  00000-0  10368-2 0  9992
2 28118  28.1417  87.8117 3218029 230.9203  95.8283  9.04073332265404
Epoch (UTC): 26 September 2016 18:41:33
Eccentricity: 0.3218029
inclination: 28.1417°
perigee height: 223 km
apogee height: 6487 km
right ascension of ascending node: 87.8117°
argument of perigee: 230.9203°
revolutions per day: 9.04073332
mean anomaly at epoch: 95.8283°
orbit number at epoch: 26540

The dashed part of the orbit path shows where the satellite is in the earth's shadow,  

DLR